GROUP/SHIP,CRUISE_DESIGNATION,JD_GMT,DATE_DDMMYYYY,TIME_HH:MM:SS,LAT_DEC_DEGREE,LONG_DEC_DEGREE,xCO2W_PPM,xCO2A_PPM,PRES_EQUIL_hPa,PRES_SEALEVEL_hPa,EqTEMP_C,SST(TSG)_C,SAL(TSG)_PERMIL,WATER_FLOW_L/MIN,GAS_FLOW_IR_ML/MIN,TEMP_IR_C,PRES_IR_hPa,SHIP_HEADING_TRUE_DEGREE,SHIP_SPEED_KNOT,WIND_DIR_REL_DEGREE,WIND_SPEED_REL_M/S,fCO2W@SST_uATM,QC_FLAG_WATER,fCO2A_uATM,QC_FLAG_AIR,dfCO2_uATM,FLUORO_uG/L,WIND_SPEED_TRUE_M/S,WIND_DIR_TRUE_DEGREE,AIR_TEMP_C
AOML_Brown,RB200707,238.631,26082007,15:08:47,41.900,-70.402,421.68,398.53,1010.77,1011.77,19.82,19.52,31.39,11.82,565.82,27.25,1010.77,16.00,9.90,3.90,4.30,404.53,2,388.82,2,15.71,2.01,0.86,176.01,23.76
AOML_Brown,RB200707,238.634,26082007,15:13:27,41.913,-70.397,412.35,398.53,1010.78,1011.75,19.38,19.16,31.39,11.80,563.80,28.00,1010.78,17.80,10.20,358.20,4.39,397.25,2,388.82,2,8.43,2.17,0.87,208.54,23.93
AOML_Brown,RB200707,238.637,26082007,15:17:47,41.924,-70.392,420.76,398.53,1010.87,1011.78,18.56,18.31,31.39,11.78,560.97,28.69,1010.87,15.00,10.30,352.40,4.89,405.23,2,388.82,2,16.41,2.60,0.99,255.32,24.08
AOML_Brown,RB200707,238.640,26082007,15:22:07,41.936,-70.387,425.80,398.53,1010.89,1011.87,18.08,17.53,31.40,11.83,559.99,29.32,1010.89,27.70,9.90,342.40,4.89,405.32,2,388.82,2,16.50,2.76,1.58,278.66,24.38
AOML_Brown,RB200707,238.652,26082007,15:38:47,41.978,-70.367,421.05,398.53,1010.84,1011.80,17.85,17.45,31.41,11.76,564.18,31.15,1010.84,22.50,9.70,333.10,4.69,403.40,2,388.82,2,14.59,2.79,2.39,271.78,26.67
AOML_Brown,RB200707,238.655,26082007,15:43:27,41.990,-70.362,417.76,398.53,1010.82,1011.83,17.57,17.13,31.41,11.72,565.25,31.55,1010.82,11.30,9.60,334.20,4.80,399.78,2,388.82,2,10.96,2.59,2.41,263.58,26.62
AOML_Brown,RB200707,238.658,26082007,15:47:47,42.001,-70.360,411.21,398.53,1010.80,1011.81,18.45,17.97,31.33,11.76,564.99,31.90,1010.80,9.10,9.40,331.10,4.19,392.27,2,388.82,2,3.46,2.34,2.51,249.99,26.62
AOML_Brown,RB200707,238.661,26082007,15:52:07,42.012,-70.356,398.84,398.53,1010.77,1011.80,18.71,18.45,31.41,11.71,564.21,32.21,1010.77,19.50,9.40,330.30,3.30,383.84,2,388.82,2,-4.98,1.90,2.67,241.12,26.64
AOML_Brown,RB200707,238.673,26082007,16:08:47,42.052,-70.329,387.56,400.77,1010.83,1011.76,18.62,18.28,31.40,11.73,565.25,33.13,1010.83,9.50,9.90,329.60,3.99,371.93,2,390.74,2,-18.81,1.67,2.60,239.34,26.40
AOML_Brown,RB200707,238.676,26082007,16:13:27,42.065,-70.327,388.21,400.77,1010.86,1011.82,18.55,18.23,31.40,11.70,565.40,33.27,1010.86,4.20,10.20,335.90,4.19,372.75,2,390.74,2,-17.99,1.64,2.21,234.72,26.07
AOML_Brown,RB200707,238.679,26082007,16:17:47,42.077,-70.324,387.41,400.77,1010.89,1011.85,18.50,18.14,31.38,11.72,566.83,33.16,1010.89,25.10,9.80,331.30,3.20,371.48,2,390.74,2,-19.26,1.73,2.52,238.57,26.17
AOML_Brown,RB200707,238.682,26082007,16:22:07,42.086,-70.315,388.18,400.77,1010.92,1011.89,18.57,18.19,31.38,11.73,566.67,32.99,1010.92,41.70,10.00,337.70,2.70,371.86,2,390.74,2,-18.88,1.68,2.81,242.77,26.12
AOML_Brown,RB200707,238.694,26082007,16:38:47,42.121,-70.274,391.39,400.77,1010.96,1011.95,18.47,18.13,31.40,11.68,565.33,33.29,1010.96,32.20,9.90,327.30,2.00,375.69,2,390.74,2,-15.04,1.89,3.64,230.59,26.02
AOML_Brown,RB200707,238.697,26082007,16:43:27,42.132,-70.265,391.00,400.77,1011.02,1011.94,18.20,17.78,31.41,11.74,565.59,33.40,1011.02,39.10,9.70,336.90,1.60,374.10,2,390.74,2,-16.63,1.92,3.57,225.66,26.12
AOML_Brown,RB200707,238.700,26082007,16:47:47,42.138,-70.251,390.72,400.77,1011.01,1012.00,18.20,17.85,31.43,11.87,565.97,33.27,1011.01,69.30,9.90,45.50,2.10,374.93,2,390.74,2,-15.81,1.78,3.93,227.20,26.07
AOML_Brown,RB200707,238.703,26082007,16:52:07,42.139,-70.236,390.68,400.77,1011.07,1012.03,18.21,17.80,31.42,11.80,566.52,33.09,1011.07,90.50,9.90,44.40,3.99,374.07,2,390.74,2,-16.67,1.68,3.63,219.92,24.61
AOML_Brown,RB200707,238.714,26082007,17:08:47,42.139,-70.173,388.00,401.63,1011.20,1012.16,18.14,17.73,31.41,11.69,567.47,33.36,1011.20,89.20,10.10,49.10,3.20,371.59,2,391.96,2,-20.37,1.97,3.92,231.54,25.95
AOML_Brown,RB200707,238.718,26082007,17:13:27,42.140,-70.156,387.68,401.63,1011.24,1012.19,18.14,17.76,31.42,11.62,567.44,33.46,1011.24,78.20,9.90,52.30,2.40,371.81,2,391.96,2,-20.14,1.85,3.97,230.97,26.07
AOML_Brown,RB200707,238.721,26082007,17:17:47,42.142,-70.140,387.52,401.63,1011.30,1012.24,18.03,17.71,31.42,11.64,567.42,33.33,1011.30,78.30,9.80,49.40,2.50,372.60,2,391.96,2,-19.36,1.82,3.81,230.17,26.22
AOML_Brown,RB200707,238.724,26082007,17:22:07,42.142,-70.124,387.29,401.63,1011.24,1012.24,18.04,17.65,31.42,11.70,567.41,33.14,1011.24,98.50,9.90,50.40,3.80,371.20,2,391.96,2,-20.76,2.06,3.89,229.88,26.32
AOML_Brown,RB200707,238.735,26082007,17:38:47,42.125,-70.068,385.85,401.63,1011.32,1012.29,18.11,17.65,31.43,11.63,567.24,33.38,1011.32,122.30,9.90,39.10,3.60,368.82,2,391.96,2,-23.14,2.06,3.22,257.05,26.67
AOML_Brown,RB200707,238.738,26082007,17:43:07,42.118,-70.054,386.04,401.63,1011.32,1012.29,18.22,17.81,31.44,11.81,567.66,33.48,1011.32,119.70,9.70,33.00,3.80,369.74,2,391.96,2,-22.22,2.01,2.63,248.24,25.48
AOML_Brown,RB200707,238.742,26082007,17:47:47,42.112,-70.040,384.69,401.63,1011.39,1012.31,18.41,18.06,31.45,11.81,567.63,33.35,1011.39,123.80,9.60,27.50,4.59,369.22,2,391.96,2,-22.74,2.08,2.34,237.08,25.70
AOML_Brown,RB200707,238.745,26082007,17:52:07,42.106,-70.027,383.60,401.63,1011.40,1012.34,18.54,18.19,31.45,11.64,567.41,33.17,1011.40,119.20,9.70,28.00,3.60,368.19,2,391.96,2,-23.77,2.13,2.51,256.34,26.20
AOML_Brown,RB200707,238.756,26082007,18:08:47,42.082,-69.974,382.78,402.57,1011.42,1012.37,18.55,18.22,31.47,11.64,567.15,33.45,1011.42,121.20,9.90,16.80,2.40,367.70,2,392.70,2,-25.00,1.95,2.87,287.75,26.42
AOML_Brown,RB200707,238.759,26082007,18:13:27,42.075,-69.960,383.58,402.57,1011.47,1012.40,18.64,18.32,31.47,11.65,567.19,33.48,1011.47,122.10,9.90,7.80,2.50,368.68,2,392.70,2,-24.02,1.94,2.63,294.97,26.57
AOML_Brown,RB200707,238.762,26082007,18:17:47,42.069,-69.946,383.81,402.57,1011.51,1012.41,18.68,18.33,31.49,11.52,567.09,33.30,1011.51,121.50,9.90,7.00,3.10,368.40,2,392.70,2,-24.31,1.83,1.93,292.60,26.49
AOML_Brown,RB200707,238.765,26082007,18:22:07,42.062,-69.932,385.02,402.57,1011.54,1012.46,18.69,18.35,31.49,11.74,566.98,33.15,1011.54,121.20,10.00,3.20,2.60,369.72,2,392.70,2,-22.98,1.67,2.55,299.97,26.57
AOML_Brown,RB200707,238.777,26082007,18:38:47,42.031,-69.887,381.07,402.57,1011.60,1012.46,18.69,18.38,31.65,11.78,561.85,33.49,1011.60,133.90,9.90,20.50,5.79,366.41,2,392.70,2,-26.29,1.43,1.74,209.05,25.20
AOML_Brown,RB200707,238.780,26082007,18:43:07,42.023,-69.876,381.14,402.57,1011.62,1012.49,18.76,18.44,31.66,11.65,560.15,33.41,1011.62,134.20,9.90,25.90,6.79,366.18,2,392.70,2,-26.52,1.45,2.83,198.64,23.54
AOML_Brown,RB200707,238.783,26082007,18:47:47,42.014,-69.863,380.96,402.57,1011.66,1012.48,18.74,18.41,31.68,11.67,559.18,33.23,1011.66,134.20,9.90,31.20,7.59,366.00,2,392.70,2,-26.70,1.42,3.84,198.42,23.39
AOML_Brown,RB200707,238.786,26082007,18:52:07,42.006,-69.852,381.55,402.57,1011.65,1012.52,18.85,18.57,31.68,11.72,558.80,33.13,1011.65,135.50,9.60,27.40,7.19,367.12,2,392.70,2,-25.59,1.43,3.26,194.74,22.15
AOML_Brown,RB200707,238.798,26082007,19:08:47,41.968,-69.818,380.74,395.22,1011.70,1012.56,18.85,18.51,31.67,11.63,558.14,33.50,1011.70,152.70,9.70,25.10,8.29,365.68,2,385.56,2,-19.88,1.42,4.14,202.54,22.24
AOML_Brown,RB200707,238.801,26082007,19:13:27,41.957,-69.810,380.08,395.22,1011.75,1012.62,18.60,18.22,31.68,11.60,558.11,33.36,1011.75,147.60,9.60,29.40,8.29,364.56,2,385.56,2,-21.00,1.45,4.67,207.72,22.05
AOML_Brown,RB200707,238.804,26082007,19:17:47,41.946,-69.803,379.33,395.22,1011.83,1012.64,18.52,18.16,31.67,11.65,557.99,33.18,1011.83,153.00,10.10,28.80,8.99,364.03,2,385.56,2,-21.53,1.55,4.89,211.53,21.85
AOML_Brown,RB200707,238.807,26082007,19:22:07,41.935,-69.796,380.10,395.22,1011.77,1012.65,18.61,18.20,31.61,11.71,557.94,33.12,1011.77,153.70,10.10,30.20,8.79,364.11,2,385.56,2,-21.45,1.52,4.78,210.43,22.12
AOML_Brown,RB200707,238.819,26082007,19:38:47,41.893,-69.767,385.67,395.22,1011.89,1012.76,18.86,18.55,31.52,11.72,558.06,33.50,1011.89,152.90,10.30,33.50,7.79,370.84,2,385.56,2,-14.72,1.62,4.33,224.71,23.14
AOML_Brown,RB200707,238.822,26082007,19:43:07,41.882,-69.760,388.95,395.22,1011.94,1012.81,18.99,18.60,31.53,11.68,558.01,33.36,1011.94,152.20,9.90,35.70,7.29,372.65,2,385.56,2,-12.91,1.59,4.12,229.97,22.82
AOML_Brown,RB200707,238.825,26082007,19:47:47,41.871,-69.752,387.39,395.22,1012.01,1012.86,18.65,18.25,31.60,11.65,557.97,33.17,1012.01,153.60,10.10,30.60,7.19,371.11,2,385.56,2,-14.45,1.47,3.54,225.77,22.62
AOML_Brown,RB200707,238.828,26082007,19:52:07,41.860,-69.745,388.63,395.22,1012.07,1012.90,18.87,18.62,31.52,11.57,557.98,33.11,1012.07,152.70,9.70,34.80,6.29,374.68,2,385.56,2,-10.88,1.70,3.45,236.98,22.00
AOML_Brown,RB200707,238.839,26082007,20:08:47,41.820,-69.717,418.57,399.62,1012.01,1012.83,14.77,13.66,31.80,11.52,558.71,33.50,1012.01,153.10,9.40,36.50,7.19,390.96,2,389.87,2,1.08,4.50,4.69,235.14,23.04
AOML_Brown,RB200707,238.843,26082007,20:13:27,41.809,-69.710,413.18,399.62,1012.00,1012.90,15.01,14.24,31.65,11.71,559.14,33.37,1012.00,152.80,9.40,33.90,6.39,391.40,2,389.87,2,1.53,5.46,4.06,237.36,21.80
AOML_Brown,RB200707,238.846,26082007,20:17:47,41.799,-69.703,391.99,399.62,1012.10,1012.90,17.01,16.28,31.70,11.63,559.82,33.17,1012.10,152.40,9.40,34.30,6.99,371.13,2,389.87,2,-18.75,5.36,4.46,235.50,22.27
AOML_Brown,RB200707,238.849,26082007,20:22:07,41.789,-69.696,380.42,399.62,1012.05,1013.00,18.01,17.72,31.85,11.55,559.98,33.08,1012.05,151.00,9.40,1.20,4.10,366.60,2,389.87,2,-23.27,3.28,0.82,302.48,21.23
AOML_Brown,RB200707,238.860,26082007,20:38:47,41.751,-69.670,372.90,399.62,1012.10,1012.98,18.95,18.67,31.83,11.64,558.97,33.47,1012.10,152.70,9.10,30.50,7.39,359.05,2,389.87,2,-30.83,2.13,4.36,223.88,20.80
AOML_Brown,RB200707,238.863,26082007,20:43:07,41.741,-69.664,373.08,399.62,1012.19,1013.01,19.00,18.72,31.82,11.72,559.02,33.49,1012.19,153.10,9.30,32.20,6.99,359.22,2,389.87,2,-30.66,2.24,4.05,228.85,20.55
AOML_Brown,RB200707,238.867,26082007,20:47:47,41.730,-69.656,373.26,399.62,1012.18,1013.04,19.05,18.75,31.82,11.55,559.47,33.29,1012.18,151.40,9.20,31.80,6.49,358.95,2,389.87,2,-30.92,2.19,3.70,232.30,20.45
AOML_Brown,RB200707,238.870,26082007,20:52:07,41.720,-69.650,374.73,399.62,1012.21,1013.02,19.22,18.84,31.82,11.50,561.08,33.10,1012.21,152.70,9.20,30.70,6.59,359.20,2,389.87,2,-30.67,2.02,3.61,228.64,20.48
AOML_Brown,RB200707,238.881,26082007,21:08:47,41.687,-69.615,371.98,399.05,1012.29,1013.08,19.23,18.92,31.88,11.63,566.51,33.37,1012.29,137.40,9.00,44.30,6.49,357.55,2,389.16,2,-31.61,1.86,4.46,226.54,20.41
AOML_Brown,RB200707,238.884,26082007,21:13:27,41.679,-69.605,371.39,399.05,1012.12,1013.09,19.28,18.97,31.87,11.72,566.72,33.49,1012.12,146.70,9.00,42.90,6.69,357.04,2,389.16,2,-32.11,1.88,4.46,230.68,20.41
AOML_Brown,RB200707,238.887,26082007,21:17:47,41.669,-69.598,372.38,399.05,1012.11,1013.01,19.12,18.89,31.86,11.68,566.90,33.48,1012.11,154.70,9.30,37.20,7.19,359.12,2,389.16,2,-30.04,1.88,4.30,230.36,20.38
AOML_Brown,RB200707,238.890,26082007,21:22:07,41.658,-69.592,376.63,399.05,1012.15,1013.02,19.11,18.79,31.70,11.53,566.99,33.26,1012.15,157.20,9.30,42.70,7.79,361.87,2,389.16,2,-27.28,2.14,5.10,233.00,20.50
AOML_Brown,RB200707,238.902,26082007,21:38:47,41.619,-69.570,378.30,399.05,1012.25,1013.09,20.05,19.79,31.94,11.68,567.34,33.24,1012.25,158.00,9.10,30.80,5.99,364.06,2,389.16,2,-25.09,1.59,2.77,233.43,20.70
AOML_Brown,RB200707,238.905,26082007,21:43:07,41.609,-69.565,380.40,399.05,1012.30,1013.11,20.04,19.75,31.94,11.73,567.50,33.40,1012.30,157.50,9.20,36.70,6.29,365.63,2,389.16,2,-23.53,1.49,3.43,238.07,20.68
AOML_Brown,RB200707,238.908,26082007,21:47:47,41.598,-69.559,378.70,399.05,1012.26,1013.17,19.91,19.61,31.97,11.76,567.62,33.47,1012.26,157.50,9.10,32.60,6.19,363.95,2,389.16,2,-25.21,1.48,3.06,233.28,20.65
AOML_Brown,RB200707,238.911,26082007,21:52:07,41.588,-69.553,377.48,399.05,1012.18,1013.14,19.97,19.65,31.99,11.67,567.56,33.30,1012.18,158.40,9.00,28.40,6.69,362.44,2,389.16,2,-26.72,1.37,3.05,218.48,20.41
AOML_Brown,RB200707,238.923,26082007,22:08:47,41.549,-69.533,378.35,394.89,1012.32,1013.18,20.24,19.91,32.00,11.73,567.62,33.20,1012.32,159.40,9.00,32.50,6.29,362.83,2,385.66,2,-22.83,1.42,2.91,230.15,19.49
AOML_Brown,RB200707,238.926,26082007,22:13:27,41.538,-69.526,379.41,394.89,1012.26,1013.20,20.24,19.98,32.00,11.74,567.78,33.33,1012.26,154.30,9.20,34.30,6.09,364.98,2,385.66,2,-20.68,1.41,3.08,232.18,19.44
AOML_Brown,RB200707,238.929,26082007,22:17:47,41.528,-69.520,378.60,394.89,1012.42,1013.19,18.87,18.98,32.12,11.56,567.90,33.46,1012.42,158.80,9.20,35.00,6.39,370.66,2,385.66,2,-15.00,1.43,3.20,232.98,19.36
AOML_Brown,RB200707,238.932,26082007,22:22:07,41.518,-69.513,376.96,394.89,1012.52,1013.27,19.20,18.78,31.99,11.65,568.12,33.42,1012.52,152.20,9.20,36.50,6.69,360.92,2,385.66,2,-24.74,1.89,3.66,228.78,19.34
AOML_Brown,RB200707,238.944,26082007,22:38:47,41.481,-69.488,374.51,394.89,1012.77,1013.63,19.18,18.60,31.92,11.63,568.37,33.16,1012.77,152.80,8.70,41.80,6.59,356.15,2,385.66,2,-29.51,1.52,4.32,235.48,19.44
AOML_Brown,RB200707,238.947,26082007,22:43:07,41.471,-69.482,376.58,394.89,1012.74,1013.61,19.63,19.50,31.98,11.61,568.46,33.28,1012.74,153.90,8.80,38.80,6.39,364.89,2,385.66,2,-20.77,1.51,3.92,235.81,19.36
AOML_Brown,RB200707,238.950,26082007,22:47:47,41.461,-69.475,376.35,394.89,1012.78,1013.62,19.07,19.20,31.95,11.62,568.52,33.41,1012.78,153.20,8.70,46.50,6.09,368.89,2,385.66,2,-16.77,1.59,4.38,247.18,18.96
AOML_Brown,RB200707,238.953,26082007,22:52:07,41.452,-69.468,378.02,394.89,1012.80,1013.68,17.45,16.38,31.91,11.66,568.53,33.52,1012.80,152.80,9.20,37.30,6.19,352.97,2,385.66,2,-32.69,1.94,3.74,238.93,18.94
AOML_Brown,RB200707,238.964,26082007,23:08:47,41.414,-69.442,397.53,395.81,1013.02,1013.84,14.58,14.12,31.89,11.49,567.83,33.11,1013.02,152.50,9.00,46.90,5.59,382.18,2,388.81,2,-6.63,4.19,4.27,254.40,18.02
AOML_Brown,RB200707,238.968,26082007,23:13:27,41.402,-69.440,407.30,395.81,1012.95,1013.82,13.84,13.26,31.94,11.55,567.47,33.18,1012.95,173.20,8.90,40.40,6.49,389.85,2,388.81,2,1.04,3.13,4.25,257.67,18.24
AOML_Brown,RB200707,238.971,26082007,23:17:47,41.392,-69.438,412.35,395.81,1013.10,1013.91,13.72,13.03,31.89,11.58,567.11,33.30,1013.10,172.90,8.70,43.80,6.89,392.93,2,388.81,2,4.11,2.93,4.75,256.50,18.24
AOML_Brown,RB200707,238.974,26082007,23:22:07,41.382,-69.436,414.76,395.81,1013.05,1013.95,13.71,13.14,31.90,11.59,566.88,33.43,1013.05,172.50,8.60,42.10,6.79,397.15,2,388.81,2,8.34,2.71,4.65,254.16,18.24
AOML_Brown,RB200707,238.985,26082007,23:38:47,41.342,-69.433,395.23,395.81,1013.27,1014.15,15.16,14.80,31.90,11.59,566.34,33.14,1013.27,178.80,8.30,40.40,5.89,381.53,2,388.81,2,-7.28,3.28,3.90,266.56,17.77
AOML_Brown,RB200707,238.988,26082007,23:43:07,41.332,-69.433,390.46,395.81,1013.41,1014.23,15.26,15.01,31.94,11.56,565.98,33.11,1013.41,179.60,8.40,42.70,5.69,378.54,2,388.81,2,-10.27,3.38,3.96,272.51,17.80
AOML_Brown,RB200707,238.992,26082007,23:47:47,41.321,-69.433,392.11,395.81,1013.19,1014.20,14.85,14.45,31.97,11.60,566.02,33.18,1013.19,179.90,8.50,39.20,5.59,377.97,2,388.81,2,-10.84,3.51,3.57,270.30,17.62
AOML_Brown,RB200707,238.995,26082007,23:52:07,41.311,-69.433,394.72,395.81,1013.28,1014.19,14.53,14.18,31.96,11.75,566.09,33.31,1013.28,180.90,8.60,42.90,5.49,381.39,2,388.81,2,-7.42,3.59,3.79,276.14,17.60
AOML_Brown,RB200707,239.006,27082007,00:08:47,41.274,-69.402,409.26,393.02,1013.55,1014.38,14.64,13.87,32.08,11.63,567.56,33.19,1013.55,114.00,10.30,29.10,3.99,388.37,2,386.43,2,1.94,3.06,3.00,244.85,16.53
AOML_Brown,RB200707,239.009,27082007,00:13:27,41.268,-69.388,410.41,393.02,1013.54,1014.37,14.79,14.36,32.09,11.64,567.79,33.10,1013.54,135.70,9.70,30.70,4.89,395.15,2,386.43,2,8.72,2.94,3.11,244.26,17.05
AOML_Brown,RB200707,239.012,27082007,00:17:47,41.259,-69.377,413.26,393.02,1013.71,1014.41,14.87,14.27,32.03,11.74,567.98,33.13,1013.71,133.80,9.40,31.90,5.59,395.07,2,386.43,2,8.63,2.96,3.67,231.65,17.20
AOML_Brown,RB200707,239.015,27082007,00:22:07,41.251,-69.366,407.60,393.02,1013.90,1014.52,15.38,15.10,31.98,11.58,568.30,33.24,1013.90,140.70,9.40,39.70,5.99,394.79,2,386.43,2,8.36,3.02,4.40,243.00,17.94
AOML_Brown,RB200707,239.027,27082007,00:38:47,41.217,-69.340,450.53,393.02,1014.22,1014.93,12.01,11.22,32.20,11.41,567.37,33.39,1014.22,165.00,7.90,34.30,7.09,428.58,2,386.43,2,42.15,2.73,4.66,237.02,16.01
AOML_Brown,RB200707,239.030,27082007,00:43:07,41.207,-69.337,451.38,393.02,1014.29,1015.02,11.96,11.26,32.22,11.42,566.67,33.19,1014.29,164.20,7.90,40.50,8.19,431.04,2,386.43,2,44.61,3.04,6.13,238.61,15.81
AOML_Brown,RB200707,239.033,27082007,00:47:47,41.198,-69.333,452.00,393.02,1014.35,1015.06,11.96,11.49,32.22,11.56,566.24,33.09,1014.35,164.60,8.00,46.70,7.49,435.95,2,386.43,2,49.51,3.16,5.92,248.79,15.86
AOML_Brown,RB200707,239.036,27082007,00:52:07,41.188,-69.329,454.10,393.02,1014.20,1015.14,12.11,11.49,32.20,11.55,565.92,33.12,1014.20,163.60,8.00,48.60,7.09,435.18,2,386.43,2,48.75,3.26,5.47,243.91,15.81
AOML_Brown,RB200707,239.048,27082007,01:08:47,41.157,-69.294,447.68,395.43,1014.49,1015.29,12.51,11.96,32.21,11.59,565.97,33.54,1014.49,127.50,9.80,56.60,5.09,430.27,2,389.30,2,40.98,3.51,5.35,248.56,16.03
AOML_Brown,RB200707,239.051,27082007,01:13:27,41.149,-69.281,445.94,395.43,1014.42,1015.37,12.69,12.18,32.16,11.51,566.14,33.43,1014.42,128.20,9.30,63.30,4.80,429.13,2,389.30,2,39.84,3.43,5.57,253.60,15.98
AOML_Brown,RB200707,239.054,27082007,01:17:47,41.143,-69.270,446.20,395.43,1014.48,1015.36,12.73,12.22,32.19,11.59,566.35,33.18,1014.48,126.40,7.90,78.40,4.89,429.40,2,389.30,2,40.10,3.46,6.22,254.57,15.56
AOML_Brown,RB200707,239.057,27082007,01:22:07,41.137,-69.260,446.88,395.43,1014.36,1015.39,12.71,12.17,32.22,11.46,566.61,33.03,1014.36,128.40,7.90,69.70,4.50,429.44,2,389.30,2,40.15,3.36,5.36,252.94,15.51
AOML_Brown,RB200707,239.069,27082007,01:38:47,41.109,-69.234,449.28,395.43,1014.58,1015.43,12.92,12.57,32.18,11.68,568.50,33.29,1014.58,158.40,7.90,35.50,6.39,435.28,2,389.30,2,45.99,3.15,4.34,240.22,16.33
AOML_Brown,RB200707,239.072,27082007,01:43:07,41.100,-69.229,444.68,395.43,1014.67,1015.47,13.21,12.81,32.09,11.61,568.47,33.40,1014.67,159.20,7.80,41.10,6.69,429.77,2,389.30,2,40.47,3.06,5.02,243.29,16.13
AOML_Brown,RB200707,239.075,27082007,01:47:47,41.091,-69.223,441.20,395.43,1014.65,1015.47,13.11,12.83,32.07,11.65,568.46,33.49,1014.65,150.10,7.90,44.30,6.79,428.77,2,389.30,2,39.48,3.24,5.37,238.65,16.70
AOML_Brown,RB200707,239.078,27082007,01:52:07,41.082,-69.218,440.45,395.43,1014.67,1015.54,13.03,12.59,32.10,11.63,568.43,33.57,1014.67,156.80,7.90,45.60,7.09,425.02,2,389.30,2,35.72,3.20,5.60,243.70,17.22
AOML_Brown,RB200707,239.089,27082007,02:08:47,41.047,-69.203,440.22,389.99,1014.74,1015.61,13.34,12.86,32.12,11.61,568.06,33.05,1014.74,162.70,8.30,42.90,6.99,424.03,2,382.61,2,41.42,3.16,5.20,246.72,17.07
AOML_Brown,RB200707,239.093,27082007,02:13:27,41.037,-69.198,424.09,389.99,1014.86,1015.66,14.29,13.49,32.15,11.71,568.11,33.02,1014.86,161.90,8.20,40.70,6.89,402.82,2,382.61,2,20.21,3.57,4.96,245.15,17.52
AOML_Brown,RB200707,239.096,27082007,02:17:47,41.027,-69.194,410.48,389.99,1014.90,1015.73,14.24,13.74,32.44,11.50,568.14,33.08,1014.90,163.60,8.20,41.80,8.19,394.72,2,382.61,2,12.11,3.46,5.99,239.07,18.04
AOML_Brown,RB200707,239.099,27082007,02:22:07,41.018,-69.191,402.40,389.99,1014.94,1015.77,14.70,14.09,32.43,11.57,568.20,33.16,1014.94,162.80,8.40,42.90,7.09,385.00,2,382.61,2,2.39,3.74,5.21,246.87,17.67
AOML_Brown,RB200707,239.110,27082007,02:38:47,40.984,-69.171,367.15,389.99,1014.89,1015.79,17.29,16.97,32.31,11.71,568.23,33.49,1014.89,142.10,8.20,61.10,5.39,354.61,2,382.61,2,-28.00,2.24,5.28,254.24,18.76
AOML_Brown,RB200707,239.113,27082007,02:43:07,40.976,-69.163,365.29,389.99,1014.82,1015.79,17.52,17.23,32.33,11.66,568.23,33.57,1014.82,142.90,8.20,49.50,5.59,353.06,2,382.61,2,-29.55,2.16,4.51,243.90,18.07
AOML_Brown,RB200707,239.117,27082007,02:47:47,40.967,-69.154,367.48,389.99,1014.85,1015.77,17.90,17.58,32.27,11.71,568.23,33.52,1014.85,145.00,8.30,55.80,5.49,354.62,2,382.61,2,-27.99,2.07,4.80,250.01,18.54
AOML_Brown,RB200707,239.120,27082007,02:52:07,40.959,-69.147,372.12,389.99,1014.93,1015.83,18.14,17.93,32.27,11.58,568.12,33.26,1014.93,146.10,8.20,54.20,5.79,360.75,2,382.61,2,-21.86,1.98,4.83,246.73,18.37
AOML_Brown,RB200707,239.131,27082007,03:08:47,40.926,-69.119,379.17,390.42,1015.00,1016.01,18.13,17.98,32.26,11.46,568.06,33.15,1015.00,143.30,8.30,50.60,4.80,368.59,2,382.09,2,-13.50,1.93,3.88,252.01,18.62
AOML_Brown,RB200707,239.134,27082007,03:13:27,40.918,-69.110,379.71,390.42,1015.09,1016.01,18.39,18.02,32.28,11.66,568.17,33.26,1015.09,137.20,8.50,56.90,4.59,365.59,2,382.09,2,-16.49,1.89,4.29,254.45,18.81
AOML_Brown,RB200707,239.137,27082007,03:17:47,40.911,-69.102,382.01,390.42,1015.05,1016.01,18.60,18.32,32.28,11.66,568.22,33.38,1015.05,137.70,7.70,62.80,4.19,369.13,2,382.09,2,-12.95,1.87,4.36,257.10,18.79
AOML_Brown,RB200707,239.140,27082007,03:22:07,40.902,-69.097,385.89,390.42,1015.03,1016.01,18.69,18.33,32.29,11.77,568.31,33.49,1015.03,162.50,8.00,50.20,6.39,371.45,2,382.09,2,-10.63,1.69,4.76,250.58,18.69
AOML_Brown,RB200707,239.152,27082007,03:38:47,40.868,-69.076,392.45,390.42,1014.96,1015.96,19.04,18.78,32.25,11.71,568.12,33.06,1014.96,154.30,8.30,63.40,4.89,379.19,2,382.09,2,-2.89,1.46,4.64,266.98,19.24
AOML_Brown,RB200707,239.155,27082007,03:43:07,40.859,-69.070,395.84,390.42,1015.00,1015.98,19.14,18.87,32.24,11.68,568.12,33.04,1015.00,153.30,8.40,63.50,4.80,382.22,2,382.09,2,0.13,1.38,4.67,267.74,19.26
AOML_Brown,RB200707,239.158,27082007,03:47:47,40.849,-69.063,397.70,390.42,1014.99,1015.94,19.18,18.92,32.25,11.50,568.13,33.11,1014.99,151.90,8.50,63.30,4.39,384.25,2,382.09,2,2.17,1.38,4.43,272.87,19.26
AOML_Brown,RB200707,239.161,27082007,03:52:07,40.840,-69.057,399.24,390.42,1015.00,1015.93,19.19,18.96,32.25,11.57,568.21,33.23,1015.00,153.70,8.60,61.70,4.10,386.10,2,382.09,2,4.01,1.34,4.10,276.64,19.41
AOML_Brown,RB200707,239.173,27082007,04:08:47,40.805,-69.034,401.42,394.46,1014.98,1016.00,19.18,18.87,32.16,11.56,568.11,33.35,1014.98,166.30,8.40,62.00,3.99,386.96,2,385.96,2,1.00,1.29,4.04,289.39,19.26
AOML_Brown,RB200707,239.176,27082007,04:13:27,40.794,-69.030,400.64,394.46,1015.14,1015.93,19.12,18.86,32.19,11.41,568.09,33.13,1015.14,162.40,8.50,58.50,3.80,387.19,2,385.96,2,1.23,1.26,4.05,287.31,19.16
AOML_Brown,RB200707,239.179,27082007,04:17:47,40.784,-69.026,399.73,394.46,1015.09,1016.05,19.06,18.76,32.20,11.50,568.11,33.04,1015.09,161.70,8.50,68.10,3.99,385.49,2,385.96,2,-0.47,1.24,4.60,289.22,19.36
AOML_Brown,RB200707,239.182,27082007,04:22:07,40.775,-69.022,399.76,394.46,1015.07,1016.05,19.11,18.90,32.19,11.62,568.10,33.07,1015.07,163.20,8.40,77.20,3.99,387.16,2,385.96,2,1.20,1.22,4.98,293.08,19.19
AOML_Brown,RB200707,239.194,27082007,04:38:47,40.736,-69.005,391.04,394.46,1015.10,1016.03,19.27,18.97,32.31,11.43,568.28,33.50,1015.10,161.50,8.70,53.20,3.80,377.14,2,385.96,2,-8.82,1.33,3.58,286.42,19.04
AOML_Brown,RB200707,239.197,27082007,04:43:07,40.726,-69.001,390.81,394.46,1015.08,1016.07,19.19,18.89,32.34,11.53,568.20,33.37,1015.08,160.70,8.50,49.60,3.40,376.92,2,385.96,2,-9.04,1.27,3.25,290.37,18.79
AOML_Brown,RB200707,239.200,27082007,04:47:47,40.716,-68.996,391.52,394.46,1015.07,1016.02,19.23,19.07,32.31,11.69,568.08,33.15,1015.07,161.60,8.20,54.80,3.10,379.77,2,385.96,2,-6.19,1.35,3.39,295.10,18.69
AOML_Brown,RB200707,239.203,27082007,04:52:07,40.707,-68.992,392.92,394.46,1015.02,1016.03,19.30,19.06,32.34,11.73,568.01,33.03,1015.02,161.80,8.00,54.90,3.40,379.82,2,385.96,2,-6.14,1.30,3.36,289.37,18.91
AOML_Brown,RB200707,239.214,27082007,05:08:47,40.672,-68.977,389.57,394.04,1015.10,1016.10,19.31,18.92,32.34,11.60,568.05,33.43,1015.10,160.70,7.60,62.40,2.90,374.34,2,385.65,2,-11.30,1.28,3.52,295.24,18.47